Surface/Precipitation History
11/20/2017 22:14  to  11/21/2017 22:14
Change End Date:
Date/Time
(MST)
Sf
Temp Chem Water Layer Surface Precipitation
Sfc Pvt Sub Frz Factor Pct Dpth DpthThk IcePct Cond Salin FI Type Intens Accum Rate
11/21/2017 22:12 Wet 37.4F - 38F 32F 95 0% 0.10 in - 0% 0 mhos 17 - None None - -
11/21/2017 22:11 Wet 37.4F - 38F 32F 95 0% 0.10 in - 0% 0 mhos 17 - Yes - - -
11/21/2017 22:01 Wet 37.4F - 38F 32F 95 0% 0.10 in - 0% 0 mhos 21 - None None - -
11/21/2017 21:56 Wet 37.4F - 38F 32F 95 0% 0.10 in - 0% 0 mhos 17 - None None - -
11/21/2017 21:51 Wet 37.2F - 38F 32F 95 0% 0.10 in - 0% 0 mhos 23 - None None - -
11/21/2017 21:41 Wet 37.4F - 38F 32F 95 0% 0.10 in - 0% 0 mhos 24 - None None - -
11/21/2017 21:41 Wet 37.4F - 38F 32F 95 0% 0.10 in - 0% 0 mhos 24 - None None - -
11/21/2017 21:31 Error 37.4F - 38F - - - - - - 0 mhos 16 - None None - -
11/21/2017 21:26 Wet 37.4F - 38F 32F 95 0% 0.10 in - 0% 0 mhos 21 - None None - -
11/21/2017 21:21 Wet 37.4F - 38F 32F 95 0% 0.10 in - 0% 0 mhos 18 - None None - -
11/21/2017 21:12 Error 37.4F - 38F - - - - - - 0 mhos 0 - None None - -
11/21/2017 21:11 Error 37.4F - 38F - - - - - - 0 mhos 0 - None None - -
11/21/2017 21:01 Error 37.4F - 38F - - - - - - 0 mhos 0 - None None - -
11/21/2017 20:56 Error 37.4F - 38F - - - - - - 0 mhos 17 - None None - -
11/21/2017 20:51 Wet 37.4F - 38F 32F 95 0% 0.00 in - 0% 0 mhos 18 - None None - -
Date/Time
(MST)
Sf
Temp Chem Water Layer Surface Precipitation
Sfc Pvt Sub Frz Factor Pct Dpth DpthThk IcePct Cond Salin FI Type Intens Accum Rate
11/21/2017 20:42 Error 37.4F - 38F - - - - - - 0 mhos 17 - None None - -
11/21/2017 20:41 Error 37.4F - 38F - - - - - - 0 mhos 0 - None None - -
11/21/2017 20:31 Wet 37.2F - 38F 32F 95 0% 0.20 in - 0% 0 mhos 15 - None None - -
11/21/2017 20:27 Wet 37.2F - 38F 32F 95 0% 0.10 in - 0% 0 mhos 20 - None None - -
11/21/2017 20:20 Wet 37.6F - 38F 32F 95 0% 0.00 in - 0% 0 mhos 0 - None None - -
11/21/2017 20:12 Wet 37.9F - 38F 32F 95 0% 0.20 in - 0% 0 mhos 17 - None None - -
11/21/2017 20:10 Wet 38.1F - 38F 32F 95 0% 0.20 in - 0% 0 mhos 17 - None None - -
11/21/2017 20:00 Wet 37.9F - 38F 32F 95 0% 0.20 in - 0% 0 mhos 16 - None None - -
11/21/2017 19:57 Wet 37.9F - 38F 32F 95 0% 0.00 in - 0% 0 mhos 0 - None None - -
11/21/2017 19:50 Wet 37.6F - 38F 32F 95 0% 0.00 in - 0% 0 mhos 0 - None None - -
11/21/2017 19:41 Error 37.4F - 38F - - - - - - 0 mhos 0 - None None - -
11/21/2017 19:40 Error 37.4F - 38F - - - - - - 0 mhos 0 - None None - -
11/21/2017 19:30 Wet 37.6F - 38F 32F 95 0% 0.00 in - 0% 0 mhos 0 - None None - -
11/21/2017 19:27 Error 37.4F - 38F - - - - - - 0 mhos 0 - None None - -
11/21/2017 19:20 Wet 37.8F - 38F 32F 95 0% 0.00 in - 0% 0 mhos 16 - None None - -
Date/Time
(MST)
Sf
Temp Chem Water Layer Surface Precipitation
Sfc Pvt Sub Frz Factor Pct Dpth DpthThk IcePct Cond Salin FI Type Intens Accum Rate
11/21/2017 19:12 Wet 37.6F - 38F 32F 95 0% 0.00 in - 0% 0 mhos 13 - None None - -
11/21/2017 19:10 Error 37.4F - 38F - - - - - - 0 mhos 0 - Yes - - -
11/21/2017 19:00 Error 37.4F - 38F - - - - - - 0 mhos 0 - Yes - - -
11/21/2017 18:56 Error 37.4F - 38F - - - - - - 0 mhos 0 - Yes - - -
11/21/2017 18:50 Error 37.6F - 37F - - - - - - 0 mhos 0 - Yes - - -
11/21/2017 18:42 Error 37.8F - 37F - - - - - - 0 mhos 0 - Yes - - -
11/21/2017 18:40 Wet 38.1F - 37F 32F 95 0% 0.00 in - 0% 0 mhos 0 - Yes - - -
11/21/2017 18:30 Error 38.5F - 37F - - - - - - 0 mhos 0 - Yes - - -
11/21/2017 18:27 Error 37.8F - 37F - - - - - - 0 mhos 0 - Yes - - -
11/21/2017 18:20 Error 37.8F - 37F - - - - - - 0 mhos 0 - Yes - - -
11/21/2017 18:12 Error 37.9F - 37F - - - - - - 0 mhos 0 - Yes - - -
11/21/2017 18:10 Error 37.8F - 37F - - - - - - 0 mhos 0 - Yes - - -
11/21/2017 18:00 Error 38.1F - 37F - - - - - - 0 mhos 0 - Yes - - -
11/21/2017 17:57 Error 38.1F - 37F - - - - - - 0 mhos 0 - Yes - - -
11/21/2017 17:49 Wet 38.5F - 37F 32F 95 0% 0.00 in - 0% 0 mhos 0 - Yes - - -
Date/Time
(MST)
Sf
Temp Chem Water Layer Surface Precipitation
Sfc Pvt Sub Frz Factor Pct Dpth DpthThk IcePct Cond Salin FI Type Intens Accum Rate
11/21/2017 17:41 Wet 38.5F - 37F 32F 95 0% 0.00 in - 0% 0 mhos 0 - Yes - - -
11/21/2017 17:39 Wet 38.5F - 37F 32F 95 0% 0.00 in - 0% 0 mhos 0 - Yes - - -
11/21/2017 17:29 Error 38.5F - 37F - - - - - - 0 mhos 0 - Yes - - -
11/21/2017 17:27 Error 38.7F - 37F - - - - - - 0 mhos 0 - Yes - - -
11/21/2017 17:19 Error 38.7F - 37F - - - - - - 0 mhos 0 - Yes - - -
11/21/2017 17:12 Error 39.0F - 37F - - - - - - 0 mhos 0 - Yes - - -
11/21/2017 17:09 Error 38.8F - 37F - - - - - - 0 mhos 0 - Yes - - -
11/21/2017 16:59 Error 39.6F - 37F - - - - - - 0 mhos 14 - Yes - - -
11/21/2017 16:57 Wet 39.7F - 37F 32F 95 0% 0.00 in - 0% 0 mhos 0 - Yes - - -
11/21/2017 16:49 Wet 40.3F - 37F 32F 20 0% 0.00 in - 0% 0 mhos 0 - Yes - - -
11/21/2017 16:41 Wet 40.3F - 37F 32F 35 0% 0.00 in - 0% 0 mhos 0 - None None - -
11/21/2017 16:39 Wet 40.3F - 37F 32F 5 0% 0.00 in - 0% 0 mhos 0 - None None - -
11/21/2017 16:29 Wet 40.5F - 37F 32F 5 0% 0.00 in - 0% 0 mhos 0 - None None - -
11/21/2017 16:27 Wet 40.5F - 37F 32F 5 0% 0.00 in - 0% 0 mhos 0 - None None - -
11/21/2017 16:19 Wet 40.6F - 37F 32F 5 0% 0.50 in - 0% 0 mhos 0 - None None - -
Date/Time
(MST)
Sf
Temp Chem Water Layer Surface Precipitation
Sfc Pvt Sub Frz Factor Pct Dpth DpthThk IcePct Cond Salin FI Type Intens Accum Rate
11/21/2017 16:12 Wet 40.8F - 37F 32F 5 0% 0.30 in - 0% 0 mhos 1 - None None - -
11/21/2017 16:09 Wet 41.0F - 37F 32F 5 0% 0.50 in - 0% 0 mhos 0 - None None - -
11/21/2017 15:59 Wet 41.2F - 37F 32F 5 0% 0.30 in - 0% 0 mhos 1 - None None - -
11/21/2017 15:57 Wet 41.0F - 37F 32F 5 0% 0.00 in - 0% 0 mhos 1 - None None - -
11/21/2017 15:49 Wet 41.4F - 36F 32F 5 0% 0.00 in - 0% 0 mhos 0 - None None - -
11/21/2017 15:42 Wet 41.5F - 36F 32F 5 0% 0.00 in - 0% 0 mhos 0 - Yes - - -
11/21/2017 15:39 Wet 41.5F - 36F 32F 5 0% 0.00 in - 0% 0 mhos 0 - Yes - - -
11/21/2017 15:29 Wet 41.9F - 36F 32F 5 0% 0.00 in - 0% 0 mhos 1 - Yes - - -
11/21/2017 15:27 Wet 41.9F - 36F 32F 5 0% 0.30 in - 0% 0 mhos 1 - Yes - - -
11/21/2017 15:18 Wet 42.4F - 36F 32F 5 0% 0.30 in - 0% 0 mhos 1 - None None - -
11/21/2017 15:11 Wet 42.6F - 36F 32F 5 0% 0.00 in - 0% 0 mhos 0 - None None - -
11/21/2017 15:08 Wet 42.6F - 36F 32F 10 0% 0.10 in - 0% 0 mhos 2 - None None - -
11/21/2017 14:58 Wet 41.9F - 36F 32F 45 0% 0.20 in - 0% 0 mhos 3 - Yes - - -
11/21/2017 14:56 Wet 42.1F - 36F 32F 95 0% 0.20 in - 0% 0 mhos 8 - Yes - - -
11/21/2017 14:48 Wet 43.0F - 36F 32F 95 0% 0.20 in - 0% 0 mhos 11 - Yes - - -
Date/Time
(MST)
Sf
Temp Chem Water Layer Surface Precipitation
Sfc Pvt Sub Frz Factor Pct Dpth DpthThk IcePct Cond Salin FI Type Intens Accum Rate
11/21/2017 14:41 Wet 43.7F - 36F 32F 80 0% 0.10 in - 0% 0 mhos 7 - None None - -
11/21/2017 14:38 Wet 43.5F - 36F 32F 15 0% 0.10 in - 0% 0 mhos 2 - None None - -
11/21/2017 14:28 Wet 44.4F - 36F 32F 95 0% 0.20 in - 0% 0 mhos 12 - Yes - - -
11/21/2017 14:27 Wet 44.8F - 36F 32F 95 0% 0.10 in - 0% 0 mhos 12 - Yes - - -
11/21/2017 14:18 Wet 44.4F - 36F 32F 95 0% 0.10 in - 0% 0 mhos 17 - Yes - - -
11/21/2017 14:12 Wet 48.4F - 36F 32F 95 0% 0.20 in - 0% 0 mhos 16 - Yes - - -
11/21/2017 14:08 Wet 48.9F - 36F 32F 95 0% 0.10 in - 0% 0 mhos 21 - Yes - - -
11/21/2017 13:58 Wet 45.9F - 36F 32F 95 0% 0.20 in - 0% 0 mhos 12 - Yes - - -
11/21/2017 13:57 Wet 45.9F - 36F 32F 95 0% 0.10 in - 0% 0 mhos 12 - Yes - - -
11/21/2017 13:48 Wet 45.9F - 36F 32F 95 0% 0.20 in - 0% 0 mhos 14 - Yes - - -
11/21/2017 13:41 Wet 45.9F - 36F 32F 95 0% 0.20 in - 0% 0 mhos 14 - Yes - - -
11/21/2017 13:38 Wet 45.7F - 36F 32F 95 0% 0.10 in - 0% 0 mhos 17 - Yes - - -
11/21/2017 13:28 Wet 48.6F - 36F 32F 95 0% 0.20 in - 0% 0 mhos 17 - Yes - - -
11/21/2017 13:27 Wet 48.9F - 36F 32F 95 0% 0.10 in - 0% 0 mhos 17 - Yes - - -
11/21/2017 13:18 Wet 47.7F - 36F 32F 95 0% 0.10 in - 0% 0 mhos 18 - Yes - - -
Date/Time
(MST)
Sf
Temp Chem Water Layer Surface Precipitation
Sfc Pvt Sub Frz Factor Pct Dpth DpthThk IcePct Cond Salin FI Type Intens Accum Rate
11/21/2017 13:12 Wet 48.4F - 36F 32F 95 0% 0.20 in - 0% 0 mhos 21 - Yes - - -
11/21/2017 13:08 Wet 48.4F - 35F 32F 95 0% 0.20 in - 0% 0 mhos 22 - Yes - - -
11/21/2017 12:58 Wet 48.4F - 35F 32F 95 0% 0.10 in - 0% 0 mhos 36 - Yes - - -
11/21/2017 12:57 Wet 48.7F - 35F 32F 95 0% 0.10 in - 0% 0 mhos 17 - Yes - - -
11/21/2017 12:48 Error 48.9F - 35F - - - - - - 0 mhos 17 - Yes - - -
11/21/2017 12:42 Wet 48.9F - 35F 32F 95 0% 0.10 in - 0% 0 mhos 34 - Yes - - -
11/21/2017 12:38 Wet 48.9F - 35F 32F 95 0% 0.20 in - 0% 0 mhos 32 - Yes - - -
11/21/2017 12:28 Error 48.2F - 35F - - - - - - 0 mhos 38 - Yes - - -
11/21/2017 12:26 Wet 48.6F - 35F 32F 95 0% 0.10 in - 0% 0 mhos 30 - Yes - - -
11/21/2017 12:17 Wet 47.8F - 35F 32F 95 0% 0.20 in - 0% 1 mhos 43 - Yes - - -
11/21/2017 12:12 Wet 47.7F - 35F 32F 95 0% 0.20 in - 0% 0 mhos 39 - Yes - - -
11/21/2017 12:07 Wet 47.5F - 35F 32F 95 0% 0.20 in - 0% 0 mhos 33 - Yes - - -
11/21/2017 11:57 Wet 47.1F - 35F 32F 95 0% 0.10 in - 0% 1 mhos 47 - Yes - - -
11/21/2017 11:57 Wet 47.1F - 35F 32F 95 0% 0.10 in - 0% 0 mhos 38 - Yes - - -
11/21/2017 11:47 Wet 46.4F - 35F 32F 95 0% 0.10 in - 0% 0 mhos 39 - Yes - - -
Date/Time
(MST)
Sf
Temp Chem Water Layer Surface Precipitation
Sfc Pvt Sub Frz Factor Pct Dpth DpthThk IcePct Cond Salin FI Type Intens Accum Rate
11/21/2017 11:41 Wet 45.3F - 35F 32F 95 0% 0.20 in - 0% 1 mhos 53 - Yes - - -
11/21/2017 11:37 Wet 45.5F - 35F 32F 95 0% 0.20 in - 0% 1 mhos 57 - Yes - - -
11/21/2017 11:27 Error 44.8F - 35F - - - - - - 1 mhos 72 - Yes - - -
11/21/2017 11:26 Error 45.0F - 35F - - - - - - 1 mhos 67 - Yes - - -
11/21/2017 11:17 Wet 43.7F - 35F 32F 95 0% 0.00 in - 0% 0 mhos 35 - Yes - - -
11/21/2017 11:11 Wet 43.0F - 35F 32F 95 0% 0.10 in - 0% 1 mhos 48 - Yes - - -
11/21/2017 11:07 Wet 43.2F - 35F 32F 95 0% 0.10 in - 0% 1 mhos 56 - Yes - - -
11/21/2017 10:57 Wet 42.3F - 35F 32F 95 0% 0.20 in - 0% 1 mhos 79 - Yes - - -
11/21/2017 10:56 Error 41.9F - 35F - - - - - - 1 mhos 117 - None None - -
11/21/2017 10:47 Wet 41.2F - 35F 32F 95 0% 0.20 in - 0% 1 mhos 111 - Yes - - -
11/21/2017 10:42 Wet 40.5F - 35F 32F 95 0% 0.20 in - 0% 1 mhos 89 - Yes - - -
11/21/2017 10:37 Wet 39.9F - 35F 32F 95 0% 0.20 in - 0% 1 mhos 103 - Yes - - -
11/21/2017 10:27 Wet 38.7F - 36F 32F 95 0% 0.20 in - 0% 1 mhos 109 - Yes - - -
11/21/2017 10:27 Wet 38.7F - 35F 32F 95 0% 0.20 in - 0% 1 mhos 109 - Yes - - -
11/21/2017 10:17 Wet 37.6F - 36F 32F 95 1% 0.20 in - 0% 2 mhos 152 - Yes - - -
Date/Time
(MST)
Sf
Temp Chem Water Layer Surface Precipitation
Sfc Pvt Sub Frz Factor Pct Dpth DpthThk IcePct Cond Salin FI Type Intens Accum Rate
11/21/2017 10:12 Wet 36.9F - 36F 32F 95 1% 0.20 in - 0% 3 mhos 240 - None None - -
11/21/2017 10:07 Wet 36.7F - 36F 32F 95 1% 0.20 in - 0% 2 mhos 200 - Yes - - -
11/21/2017 09:57 Wet 35.8F - 36F 32F 95 1% 0.10 in - 0% 2 mhos 213 - None None - -
11/21/2017 09:56 Wet 35.8F - 36F 32F 95 1% 0.10 in - 0% 2 mhos 213 - None None - -
11/21/2017 09:47 Wet 35.1F - 36F 32F 95 1% 0.10 in - 0% 3 mhos 321 - None None - -
11/21/2017 09:41 Wet 34.9F - 36F 32F 95 1% 0.10 in - 0% 2 mhos 217 - None None - -
11/21/2017 09:37 Wet 34.2F - 36F 32F 95 1% 0.10 in - 0% 2 mhos 160 - None None - -
11/21/2017 09:26 Error 33.4F - 36F - - - - - - 2 mhos 190 - None None - -
11/21/2017 09:26 Wet 33.3F - 36F 32F 95 1% 0.10 in - 0% 2 mhos 222 - None None - -
11/21/2017 09:16 Wet 32.5F - 36F 32F 95 0% 0.00 in - 0% 0 mhos 41 - None None - -
11/21/2017 09:11 Wet 32.4F - 36F 32F 95 1% 0.10 in - 0% 2 mhos 205 - None None - -
11/21/2017 09:06 Chemically Wet 32.0F - 36F 32F 95 1% 0.10 in - 0% 2 mhos 204 - None None - -
11/21/2017 08:57 Ice Warning 31.1F - 36F 32F 95 1% - - 90% 2 mhos 218 - None None - -
11/21/2017 08:56 Ice Warning 31.1F - 36F 32F 95 1% - - 90% 2 mhos 218 - None None - -
11/21/2017 08:46 Ice Warning 30.2F - 36F 32F 95 1% - - 95% 2 mhos 217 - None None - -
Date/Time
(MST)
Sf
Temp Chem Water Layer Surface Precipitation
Sfc Pvt Sub Frz Factor Pct Dpth DpthThk IcePct Cond Salin FI Type Intens Accum Rate
11/21/2017 08:41 Ice Warning 30.0F - 36F 32F 95 1% - - 96% 2 mhos 189 - None None - -
11/21/2017 08:36 Ice Warning 29.7F - 36F 32F 95 1% - - 96% 2 mhos 194 - None None - -
11/21/2017 08:26 Ice Warning 29.1F - 36F 32F 95 1% - - 95% 2 mhos 286 - None None - -
11/21/2017 08:26 Ice Warning 29.1F - 36F 32F 95 1% - - 95% 2 mhos 286 - None None - -
11/21/2017 08:16 Ice Warning 28.2F - 36F 32F 95 0% - - 100% 0 mhos 0 - None None - -
11/21/2017 08:11 Ice Warning 27.9F - 36F 32F 95 1% - - 96% 2 mhos 308 - None None - -
11/21/2017 08:06 Ice Warning 27.7F - 36F 32F 95 1% - - 97% 2 mhos 260 - None None - -
11/21/2017 07:56 Ice Warning 27.3F - 36F 32F 95 1% - - 96% 2 mhos 323 - None None - -
11/21/2017 07:56 Ice Warning 27.3F - 36F 32F 95 1% - - 96% 2 mhos 323 - None None - -
11/21/2017 07:46 Ice Warning 27.5F - 36F 32F 95 1% - - 97% 2 mhos 255 - None None - -
11/21/2017 07:41 Ice Warning 27.1F - 36F 32F 95 1% - - 96% 2 mhos 370 - None None - -
11/21/2017 07:36 Ice Warning 27.0F - 36F 32F 95 1% - - 96% 2 mhos 356 - None None - -
11/21/2017 07:26 Ice Warning 26.8F - 36F 32F 95 1% - - 96% 2 mhos 329 - None None - -
11/21/2017 07:26 Ice Warning 26.8F - 36F 32F 95 1% - - 96% 2 mhos 329 - None None - -
11/21/2017 07:16 Ice Warning 27.0F - 36F 32F 95 2% - - 94% 4 mhos 532 - None None - -
Date/Time
(MST)
Sf
Temp Chem Water Layer Surface Precipitation
Sfc Pvt Sub Frz Factor Pct Dpth DpthThk IcePct Cond Salin FI Type Intens Accum Rate
11/21/2017 07:11 Ice Warning 27.0F - 36F 32F 95 1% - - 96% 2 mhos 359 - None None - -
11/21/2017 07:06 Ice Warning 26.8F - 36F 31F 95 2% - - 94% 4 mhos 562 - None None - -
11/21/2017 06:56 Ice Warning 27.1F - 36F 31F 95 2% - - 93% 4 mhos 588 - None None - -
11/21/2017 06:55 Ice Warning 27.1F - 36F 31F 95 2% - - 93% 4 mhos 588 - None None - -
11/21/2017 06:45 Ice Warning 27.7F - 36F 32F 95 1% - - 95% 3 mhos 400 - None None - -
11/21/2017 06:41 Ice Warning 27.1F - 36F 31F 95 3% - - 90% 6 mhos 875 - None None - -
11/21/2017 06:35 Ice Warning 27.3F - 36F 31F 95 2% - - 92% 5 mhos 689 - None None - -
11/21/2017 06:26 Chemically Wet 27.3F - 36F 31F 95 5% - - 83% 10 mhos 1442 - None None - -
11/21/2017 06:25 Chemically Wet 27.3F - 36F 31F 95 5% - - 83% 10 mhos 1442 - None None - -
11/21/2017 06:15 Ice Warning 27.5F - 36F 31F 95 3% - - 91% 5 mhos 774 - None None - -
11/21/2017 06:11 Ice Warning 27.3F - 36F 31F 95 2% - - 92% 5 mhos 700 - None None - -
11/21/2017 06:05 Ice Warning 27.5F - 36F 32F 95 2% - - 94% 4 mhos 536 - None None - -
11/21/2017 05:55 Ice Warning 27.5F - 36F 31F 95 3% - - 88% 7 mhos 1014 - None None - -
11/21/2017 05:55 Ice Warning 27.5F - 36F 31F 95 2% - - 93% 4 mhos 583 - None None - -
11/21/2017 05:45 Ice Warning 27.7F - 36F 31F 95 3% - - 89% 7 mhos 918 - None None - -
Date/Time
(MST)
Sf
Temp Chem Water Layer Surface Precipitation
Sfc Pvt Sub Frz Factor Pct Dpth DpthThk IcePct Cond Salin FI Type Intens Accum Rate
11/21/2017 05:41 Ice Warning 27.5F - 36F 31F 95 2% - - 92% 4 mhos 639 - None None - -
11/21/2017 05:35 Chemically Wet 27.3F - 36F 29F 95 9% - - 69% 19 mhos 2642 - None None - -
11/21/2017 05:26 Ice Warning 27.0F - 36F 31F 95 2% - - 92% 5 mhos 682 - None None - -
11/21/2017 05:25 Ice Warning 27.0F - 36F 31F 95 3% - - 91% 5 mhos 805 - None None - -
11/21/2017 05:15 Ice Warning 27.0F - 36F 32F 95 1% - - 97% 2 mhos 287 - None None - -
11/21/2017 05:10 Ice Warning 27.0F - 36F 32F 95 1% - - 97% 2 mhos 257 - None None - -
11/21/2017 05:05 Ice Warning 26.8F - 36F 32F 95 0% - - 100% 0 mhos 30 - None None - -
11/21/2017 04:56 Ice Warning 27.7F - 36F 32F 95 0% - - 100% 0 mhos 4 - None None - -
11/21/2017 04:55 Ice Warning 27.7F - 36F 32F 95 0% - - 100% 0 mhos 3 - None None - -
11/21/2017 04:45 Ice Warning 28.0F - 36F 32F 5 0% - - 100% 0 mhos 0 - None None - -
11/21/2017 04:41 Ice Warning 28.4F - 36F 32F 5 0% - - 100% 0 mhos 0 - None None - -
11/21/2017 04:35 Ice Warning 28.6F - 36F 32F 5 0% - - 100% 0 mhos 0 - None None - -
11/21/2017 04:26 Ice Warning 28.4F - 36F 32F 5 0% - - 100% 0 mhos 0 - None None - -
11/21/2017 04:25 Ice Warning 28.4F - 36F 32F 5 0% - - 100% 0 mhos 0 - None None - -
11/21/2017 04:15 Ice Warning 28.6F - 36F 32F 5 0% - - 100% 0 mhos 0 - None None - -
Date/Time
(MST)
Sf
Temp Chem Water Layer Surface Precipitation
Sfc Pvt Sub Frz Factor Pct Dpth DpthThk IcePct Cond Salin FI Type Intens Accum Rate
11/21/2017 04:11 Ice Warning 28.8F - 36F 32F 5 0% - - 100% 0 mhos 0 - None None - -
11/21/2017 04:04 Ice Warning 29.1F - 36F 32F 5 0% - - 100% 0 mhos 0 - None None - -
11/21/2017 03:56 Ice Warning 30.0F - 36F 32F 5 0% - - 100% 0 mhos 0 - None None - -
11/21/2017 03:54 Ice Warning 30.2F - 36F 32F 5 0% - - 100% 0 mhos 0 - None None - -
11/21/2017 03:44 Ice Warning 30.2F - 36F 32F 5 0% - - 100% 0 mhos 0 - None None - -
11/21/2017 03:41 Ice Warning 30.4F - 36F 32F 5 0% - - 100% 0 mhos 0 - None None - -
11/21/2017 03:34 Ice Warning 30.2F - 36F 32F 5 0% - - 100% 0 mhos 0 - None None - -
11/21/2017 03:26 Ice Warning 30.0F - 36F 32F 5 0% - - 100% 0 mhos 0 - None None - -
11/21/2017 03:24 Ice Warning 30.0F - 36F 32F 5 0% - - 100% 0 mhos 0 - None None - -
11/21/2017 03:14 Ice Warning 29.5F - 37F 32F 5 0% - - 100% 0 mhos 0 - None None - -
11/21/2017 03:11 Ice Warning 29.1F - 37F 32F 5 0% - - 100% 0 mhos 0 - None None - -
11/21/2017 03:04 Ice Warning 29.1F - 37F 32F 5 0% - - 100% 0 mhos 0 - None None - -
11/21/2017 02:56 Ice Warning 29.5F - 37F 32F 5 0% - - 100% 0 mhos 0 - None None - -
11/21/2017 02:54 Ice Warning 29.5F - 37F 32F 5 0% - - 100% 0 mhos 0 - None None - -
11/21/2017 02:44 Ice Warning 30.2F - 37F 32F 5 0% - - 100% 0 mhos 0 - None None - -
Date/Time
(MST)
Sf
Temp Chem Water Layer Surface Precipitation
Sfc Pvt Sub Frz Factor Pct Dpth DpthThk IcePct Cond Salin FI Type Intens Accum Rate
11/21/2017 02:41 Ice Warning 30.4F - 37F 32F 5 0% - - 100% 0 mhos 0 - None None - -
11/21/2017 02:34 Ice Warning 30.6F - 37F 32F 5 0% - - 100% 0 mhos 1 - None None - -
11/21/2017 02:26 Ice Warning 31.1F - 37F 32F 5 0% - - 100% 0 mhos 1 - None None - -
11/21/2017 02:24 Ice Warning 31.1F - 37F 32F 5 0% - - 100% 0 mhos 1 - None None - -
11/21/2017 02:14 Ice Warning 31.5F - 37F 32F 5 0% - - 100% 0 mhos 1 - None None - -
11/21/2017 02:11 Ice Warning 31.8F - 37F 32F 5 0% - - 100% 0 mhos 1 - None None - -
11/21/2017 02:04 Wet 32.2F - 37F 32F 5 0% 0.00 in - 0% 0 mhos 2 - None None - -
11/21/2017 01:56 Chemically Wet 32.0F - 37F 32F 5 0% - - 65% 0 mhos 1 - None None - -
11/21/2017 01:54 Chemically Wet 32.0F - 37F 32F 5 0% - - 62% 0 mhos 1 - None None - -
11/21/2017 01:44 Wet 32.4F - 37F 32F 5 0% 0.10 in - 0% 0 mhos 1 - None None - -
11/21/2017 01:41 Wet 32.5F - 37F 32F 5 0% 0.20 in - 0% 0 mhos 1 - None None - -
11/21/2017 01:34 Wet 32.5F - 37F 32F 5 0% 0.10 in - 0% 0 mhos 1 - None None - -
11/21/2017 01:26 Wet 33.4F - 37F 32F 5 0% 0.30 in - 0% 0 mhos 1 - None None - -
11/21/2017 01:24 Wet 33.6F - 37F 32F 5 0% 0.40 in - 0% 0 mhos 1 - None None - -
11/21/2017 01:14 Wet 34.0F - 37F 32F 5 0% 0.00 in - 0% 0 mhos 1 - None None - -
Date/Time
(MST)
Sf
Temp Chem Water Layer Surface Precipitation
Sfc Pvt Sub Frz Factor Pct Dpth DpthThk IcePct Cond Salin FI Type Intens Accum Rate
11/21/2017 01:11 Wet 34.0F - 37F 32F 5 0% 0.00 in - 0% 0 mhos 1 - None None - -
11/21/2017 01:04 Wet 34.3F - 37F 32F 5 0% 0.00 in - 0% 0 mhos 1 - None None - -
11/21/2017 00:56 Wet 34.0F - 37F 32F 5 0% 0.00 in - 0% 0 mhos 1 - None None - -
11/21/2017 00:53 Wet 34.0F - 37F 32F 5 0% 0.00 in - 0% 0 mhos 1 - None None - -
11/21/2017 00:43 Wet 34.5F - 37F 32F 15 0% 0.70 in - 0% 0 mhos 1 - None None - -
11/21/2017 00:42 Wet 34.5F - 37F 32F 5 0% 0.30 in - 0% 0 mhos 1 - None None - -
11/21/2017 00:33 Wet 34.3F - 37F 32F 5 0% 0.00 in - 0% 0 mhos 1 - None None - -
11/21/2017 00:26 Wet 34.5F - 37F 32F 5 0% 0.30 in - 0% 0 mhos 1 - None None - -
11/21/2017 00:23 Wet 34.5F - 37F 32F 5 0% 0.30 in - 0% 0 mhos 1 - None None - -
11/21/2017 00:13 Wet 34.7F - 37F 32F 5 0% 0.20 in - 0% 0 mhos 1 - None None - -
11/21/2017 00:11 Wet 34.9F - 37F 32F 5 0% 0.20 in - 0% 0 mhos 1 - None None - -
11/21/2017 00:03 Wet 34.7F - 37F 32F 5 0% 0.00 in - 0% 0 mhos 1 - None None - -
11/20/2017 23:56 Wet 34.5F - 37F 32F 5 0% 0.30 in - 0% 0 mhos 1 - None None - -
11/20/2017 23:53 Wet 34.7F - 37F 32F 5 0% 0.00 in - 0% 0 mhos 1 - None None - -
11/20/2017 23:43 Wet 34.2F - 37F 32F 5 0% 0.30 in - 0% 0 mhos 1 - None None - -
Date/Time
(MST)
Sf
Temp Chem Water Layer Surface Precipitation
Sfc Pvt Sub Frz Factor Pct Dpth DpthThk IcePct Cond Salin FI Type Intens Accum Rate
11/20/2017 23:42 Wet 34.3F - 37F 32F 10 0% 0.40 in - 0% 0 mhos 1 - None None - -
11/20/2017 23:33 Wet 34.0F - 37F 32F 5 0% 0.00 in - 0% 0 mhos 1 - None None - -
11/20/2017 23:26 Wet 33.8F - 37F 32F 5 0% 0.00 in - 0% 0 mhos 1 - Yes - - -
11/20/2017 23:23 Wet 34.2F - 37F 32F 5 0% 0.00 in - 0% 0 mhos 1 - None None - -
11/20/2017 23:13 Wet 34.2F - 37F 32F 45 0% 0.60 in - 0% 0 mhos 2 - Yes - - -
11/20/2017 23:11 Wet 34.2F - 37F 32F 5 0% 0.00 in - 0% 0 mhos 0 - Yes - - -
11/20/2017 23:03 Wet 33.8F - 37F 32F 20 0% 0.70 in - 0% 0 mhos 1 - Yes - - -
11/20/2017 22:57 Wet 34.7F - 37F 32F 15 0% 0.60 in - 0% 0 mhos 1 - None None - -
11/20/2017 22:53 Wet 34.2F - 37F 32F 5 0% 0.00 in - 0% 0 mhos 1 - None None - -
11/20/2017 22:43 Wet 34.2F - 37F 32F 15 0% 1.40 in - 0% 0 mhos 1 - None None - -
11/20/2017 22:41 Wet 34.3F - 37F 32F 20 0% 0.00 in - 0% 0 mhos 1 - None None - -
11/20/2017 22:32 Wet 33.8F - 37F 32F 5 0% 0.00 in - 0% 0 mhos 1 - None None - -
11/20/2017 22:27 Wet 33.6F - 37F 32F 5 0% 0.00 in - 0% 0 mhos 1 - Yes - - -
11/20/2017 22:22 Wet 33.3F - 37F 32F 5 0% 0.00 in - 0% 0 mhos 1 - Yes - - -
Change End Date:

Copyright © 1998-2015 Vaisala, Inc.
All Rights Reserved
Send comments about the data to:
SCAN Web ® is a registered trademark of Vaisala, Inc.
SCAN Web Version 6.0